{"data":{"norad_id":68510,"epoch":"2026-05-25T03:32:00.750624Z","epoch_age_seconds":62577,"freshness":"FRESH","line1":"1 68510U 26068C   26145.14723091  .00014936  00000+0  45218-3 0  9992","line2":"2 68510  53.1595 131.0463 0001472  86.8484 273.2686 15.34408937  8691","mean_motion":15.34408937,"eccentricity":0.0001472,"inclination_deg":53.1595,"raan_deg":131.0463,"arg_perigee_deg":86.8484,"mean_anomaly_deg":273.2686,"bstar":0.00045218,"rev_number":869,"period_min":93.847211475151,"perigee_km":461.66970991529,"apogee_km":463.683645462,"semimajor_km":6840.8136776886,"source":"CELESTRAK","updated_at":"2026-05-25T13:38:21.952550Z"}}